www.pogodaiklimat.ru

Погода и климат >> Архив погоды >> Египет >> Бахария


ПОГОДА в Бахарии

  • Прогноз погоды в Бахарии
  • Монитор погоды в Бахарии

АРХИВ ПОГОДЫ в Бахарии

Время (UTC), дата Ветер
(напр.,м/с)
 
Видим.   Явления Облачность Т
(С)
Тd
(С)
f
(%)
Тe
(С)
Тes
(С)
Комфортность P
(гПа)
Po
(гПа)
Тmin
(С)
Tmax
(С)
R
(мм)
R24
(мм)
S
(см)
00 12.07 С 2 10 км ясно +27.0 +10.0 34 +27 +27 жарко 1008.8 994.0
03 12.07 штиль 0 10 км ясно +24.0 +12.0 47 +26 +26 жарко 1008.8 993.8
06 12.07 штиль 0 10 км ясно +33.0 +12.0 28 +33 +43 жарко 1010.5 995.9 +23.4
09 12.07 штиль 0 10 км ясно +41.0 +7.0 13 +39 +66 опасность
солнечного
удара
1010.5 996.3
12 12.07 З 3 10 км ясно +46.0 +4.0 8 +43 +57 опасность
перегрева
1009.1 995.1
15 12.07 СЗ 3 10 км ясно +44.0 +4.0 9 +41 +44 опасность
перегрева
1008.1 994.1
18 12.07 СЗ 2 10 км ясно +36.0 +6.0 16 +34 +34 очень
жарко
1009.1 994.7 +46.6
21 12.07 С 3 10 км ясно +31.0 +17.0 43 +35 +35 очень
душно
1010.5 995.8
00 13.07 С 4 10 км ясно +27.0 +15.0 48 +30 +30 душно 1010.2 995.4
03 13.07 С 2 10 км ясно +25.0 +15.0 54 +28 +28 жарко 1010.8 995.8
06 13.07 С 2 10 км ясно +31.0 +16.0 40 +34 +41 душно 1011.5 996.8 +24.3
09 13.07 СВ 4 10 км ясно +38.0 +12.0 21 +37 +51 опасность
солнечного
удара
1011.2 996.9
12 13.07 СЗ 3 10 км ясно +42.0 +10.0 15 +40 +55 опасность
солнечного
удара
1009.8 1010.0
15 13.07 СЗ 4 10 км ясно +39.0 +10.0 18 +38 +40 очень
жарко
1008.8 994.5
18 13.07 СЗ 3 10 км ясно +32.0 +10.0 26 +32 +32 жарко 1009.1 994.5 +42.6
21 13.07 С 3 10 км ясно +29.0 +11.0 33 +30 +30 жарко 1010.5 995.8
00 14.07 СВ 2 10 км ясно +25.0 +12.0 44 +27 +27 жарко 1009.5 994.6
03 14.07 штиль 0 10 км ясно +22.0 +12.0 53 +24 +24 комфорт 1009.1 994.0
06 14.07 С 3 10 км ясно +29.0 +13.0 37 +30 +37 жарко 1009.8 995.1 +21.4
09 14.07 С 2 10 км ясно +38.0 +9.0 17 +36 +56 опасность
солнечного
удара
1009.5 995.2
12 14.07 СЗ 3 10 км ясно +40.0 +9.0 16 +38 +53 опасность
солнечного
удара
1007.8 993.6
15 14.07 СЗ 4 10 км ясно +39.0 +2.0 10 +35 +38 очень
жарко
1006.8 992.6
18 14.07 СЗ 2 10 км ясно +31.0 +5.0 19 +29 +29 жарко 1007.8 993.2 +41.7
21 14.07 С 2 10 км ясно +28.0 +12.0 37 +29 +29 жарко 1008.8 994.0
00 15.07 СВ 2 10 км ясно +26.0 +10.0 37 +27 +27 жарко 1008.5 993.6
03 15.07 штиль 0 10 км ясно +23.0 +11.0 47 +25 +25 комфорт 1008.1 993.1
06 15.07 штиль 0 10 км ясно +32.0 +11.0 28 +32 +42 жарко 1009.1 994.5 +22.8
09 15.07 СЗ 2 10 км ясно +40.0 +9.0 16 +38 +59 опасность
солнечного
удара
1009.1 994.9
12 15.07 СЗ 3 10 км ясно +42.0 +8.0 13 +40 +56 опасность
солнечного
удара
1008.1 994.0
15 15.07 З 3 10 км ясно +41.0 +8.0 14 +39 +42 очень
жарко
1007.1 993.0
18 15.07 СЗ 2 10 км ясно +32.0 +8.0 23 +31 +31 жарко 1008.5 993.9 +43.5
21 15.07 штиль 0 10 км ясно +29.0 +9.0 29 +29 +29 жарко 1009.1 994.4
00 16.07 С 2 10 км ясно +27.0 +15.0 48 +30 +30 душно 1008.8 994.0
03 16.07 штиль 0 10 км ясно +25.0 +16.0 57 +28 +28 жарко 1008.5 993.6
06 16.07 ЮВ 2 10 км ясно +32.0 +18.0 43 +36 +43 очень
душно
1009.5 994.9 +24.3
09 16.07 В 2 10 км ясно +41.0 +13.0 19 +41 +63 опасность
перегрева
1009.1 994.9
12 16.07 З 2 10 км ясно +46.0 +8.0 11 +44 +61 опасность
перегрева
1007.5 993.6
15 16.07 З 3 10 км ясно +45.0 +5.0 9 +42 +45 опасность
перегрева
1005.8 991.9
18 16.07 штиль 0 10 км ясно +36.0 +7.0 17 +34 +34 очень
жарко
1006.4 992.0 +47.4
21 16.07 штиль 0 10 км ясно +31.0 +7.0 22 +30 +30 жарко 1006.1 991.5
00 17.07 Ю 2 10 км ясно +31.0 +5.0 19 +29 +29 жарко 1005.1 990.5
03 17.07 З 2 10 км ясно +30.0 +4.0 19 +28 +28 жарко 1005.4 990.8
06 17.07 ЮЗ 2 10 км 5/0
[Ac und]
+36.0 +8.0 18 +34 +39 очень
жарко
1006.4 992.0 +28.4
09 17.07 СЗ 3 10 км ясно +40.0 +12.0 19 +39 +56 опасность
солнечного
удара
1007.1 992.9
12 17.07 СЗ 4 10 км ясно +46.0 +9.0 11 +44 +56 опасность
перегрева
1005.8 991.9
15 17.07 СЗ 4 10 км ясно +43.0 +8.0 12 +41 +43 опасность
перегрева
1005.1 991.1
18 17.07 З 3 10 км ясно +36.0 +10.0 21 +35 +35 очень
жарко
1006.1 991.7 +46.8
21 17.07 СЗ 2 10 км ясно +32.0 +9.0 24 +31 +31 жарко 1007.5 992.9
00 18.07 С 2 10 км ясно +28.0 +8.0 28 +28 +28 жарко 1006.8 992.1
03 18.07 С 2 10 км ясно +25.0 +15.0 54 +28 +28 жарко 1008.1 993.2
06 18.07 С 2 10 км ясно +31.0 +15.0 38 +33 +40 душно 1009.8 995.2 +24.6
09 18.07 СЗ 3 10 км ясно +38.0 +14.0 24 +38 +55 опасность
солнечного
удара
1009.8 995.5
12 18.07 СЗ 5 10 км ясно +40.0 +10.0 17 +39 +49 очень
жарко
1008.8 994.6
15 18.07 СЗ 3 10 км ясно +40.0 +8.0 15 +38 +41 очень
жарко
1007.8 993.6
18 18.07 СЗ 2 10 км ясно +32.0 +9.0 24 +31 +31 жарко 1009.5 994.9 +42.6
21 18.07 штиль 0 10 км ясно +28.0 +7.0 26 +27 +27 жарко 1010.8 996.0

 

Местоположение метеостанции Бахария (Египет): широта 28.33 долгота 28.90 высота над уровнем моря 130 м.

В архиве по умолчанию представлена погода в Бахарии за последнюю неделю. Архивные данные за месяц целиком и за предыдущие месяцы, начиная с января 2011 года, Вы можете получить, выбрав интересующий диапазон дат из раскрывающегося списка и нажав кнопку "Ввод!".


*Определитесь, кто Вы:
робот инопланетянин человек

Внимание! Время в таблицах - всемирное. Для получения местного времени необходимо прибавить поправку, которая равна 2 ч.

Смотрите также архив погоды в соседних городах и на ближайших метеорологических станциях:

Погода в Фарафре (Египет) (169 км)
Погода в Миня (Египет) (182 км)
Погода в Асьюте (Египет) (253 км)
Погода в Вади-эль-Натруон (Египет) (262 км)
Погода в Дабаа (Египет) (292 км)
Погода в Каире (Египет) (315 км)
Погода в Дахле (Египет) (317 км)
Погода в Александрии (Египет) (335 км)
Погода в Харге (Египет) (359 км)
Погода в Сиве (Египет) (362 км)

Пояснения к столбцам:

Ветер - указаны скорость ветра в м/с - средняя за 10 мин, порывы в срок и между сроками (в фигурных скобках) и направление, откуда дует ветер: С - северный, СВ - северо-восточный, В - восточный, ЮВ - юго-восточный, Ю - южный, ЮЗ - юго-западный, З - западный, СЗ - северо-западный.
Видимость - горизонтальная дальность видимости в метрах или километрах. При видимости от 1 до 10 км при отсутствии осадков обычно наблюдается дымка, при ухудшении видимости до 1 км и менее - туман. В сухую погоду видимость может ухудшаться дымом, пылью или мглою.
Явления - указаны атмосферные явления, наблюдавшиеся в срок или в последний час перед сроком; фигурными скобками обозначены явления, наблюдавшиеся между сроками (за 1-3 часа до срока); квадратными скобками обозначены град или гололедные отложения с указанием их диаметра в мм.
Облачность - указаны через наклонную черту общая и нижняя облачность в баллах и высота нижней границы облаков в метрах; квадратными скобками обозначены формы облаков: Ci - перистые, Cs - перисто-слоистые, Cc - перисто-кучевые, Ac - высококучевые, As - высокослоистые, Sc - слоисто-кучевые, Ns - слоисто-дождевые, Cu - кучевые, Cb - кучево-дождевые. Подробнее классификацию облаков см. в Атласе облаков (PDF).
T - Температура воздуха - температура, измеренная на высоте 2 м над землей.
Td - Температура точки росы - температура, при понижении до которой содержащийся в воздухе водяной пар достигнет насыщения.
f - Относительная влажность воздуха - влажноcть воздуха, измеренная на высоте 2 м над землей.
Te - Эффективная температура - температура, которую ощущает одетый по сезону человек в тени. Характеристика душности погоды. При расчете учитывается влияние влажности воздуха и скорости ветра на теплоощущения человека.
Tes - Эффективная температура на солнце - температура, которую ощущает человек, с поправкой на солнечный нагрев. Характеристика знойности погоды. Зависит от высоты солнца над горизонтом, облачности и скорости ветра. Ночью, в пасмурную погоду, а также при ветре 12 м/с и более поправка равна нулю.
P - Атмосферное давление - приведенное к уровню моря атмосферное давление.
Po - Атмосферное давление - измеренное на уровне метеостанции атмосферное давление.
Tmin - Минимальная температура - минимум температуры воздуха на высоте 2 м над землей.
Tmax - Максимальная температура - максимум температуры воздуха на высоте 2 м над землей.
R - Количество осадков - Количество выпавших осадков за период времени, мм. При наведении курсора мыши на число - период времени, за который выпало указанное количество осадков.
R24 - Количество осадков - Количество выпавших осадков за 24 часа, мм.
S - Снежный покров - Высота снежного покрова, см. При наведении курсора мыши на число - состояние снежного покрова и степень покрытия местности в баллах.